User: anonymous   Login
Location: Unspecified
(0.0000°N, 0.0000°E)
Time: 10:32:56
(UTC+00:00)
Language:

USA 153 - Orbit

View from above orbital plane
View from above orbital plane
View from above satellite
View from above satellite

Ground track
Ground track

The orbit data is extracted from the following two-line orbital elements,

1 26575U 00065A   18220.89676840 0.00000000  00000-0  00000-0 0    00
2 26575   6.8410  53.7526 0003644  18.1455 341.8925  1.00270000    07
Epoch (UTC): 08 August 2018 21:31:20
Eccentricity: 0.0003644
inclination: 6.8410°
perigee height: 35771 km
apogee height: 35802 km
right ascension of ascending node: 53.7526°
argument of perigee: 18.1455°
revolutions per day: 1.00270000
mean anomaly at epoch: 341.8925°
orbit number at epoch: 0

The dashed part of the orbit path shows where the satellite is in the earth's shadow,  

DLR